Regional Weather Roundup
Issued by NWS

Home | Current Version | Previous Version | Text Only | Print | Product List | Glossary On
Versions: 1 2 3 4 5 6 7 8 9 10 11 12 13 14 15 16 17 18 19 20 21 22 23 24 25 26 27 28 29 30 31 32 33 34 35 36 37 38 39 40 41 42 43 44 45 46 47 48 49 50
742
ASUS44 KLIX 281710
RWRLA
LOUISIANA WEATHER ROUNDUP
NATIONAL WEATHER SERVICE NEW ORLEANS LA
1200 PM CDT THU AUG 28 2014

NOTE: "FAIR" INDICATES FEW OR NO CLOUDS BELOW 12,000 FEET WITH NO
      SIGNIFICANT WEATHER AND/OR OBSTRUCTIONS TO VISIBILITY.
      SKY/WX - SKY CONDITION AND SIGNIFICANT WEATHER.
      TMP - AIR TEMPERATURE.    DP   - DEWPOINT TEMPERATURE.
      RH  - RELATIVE HUMIDITY.  PRES - PRESSURE.
      HX  - HEAT INDEX.         WCI  - WIND CHILL INDEX.

*  THESE STATIONS ARE NOT NWS OR FAA STATIONS AND ARE NOT UNDER
   NWS QUALITY CONTROL.

LAZ040-048-061>063-065-066-069-281800-
SOUTHEAST LOUISIANA

CITY           SKY/WX    TMP DP  RH WIND       PRES   REMARKS
N.O. AUDUBON     N/A     90  72  55 MISG        N/A  HX  97
N.O. INTL ARPT CLOUDY    89  71  55 SE8       30.01S HX  95
N.O. LAKEFRONT PTSUNNY   87  73  62 SE9       30.01F
N.O. DOWNTOWN* FAIR      88  72  58 E3        30.02S
SLIDELL        MOSUNNY   87  73  62 E5        30.01S
BATON ROUGE    MOSUNNY   89  71  55 SE6       30.01S HX  95
BOOTHVILLE     MOSUNNY   88  73  61 E10       30.01S HX  95
BELLE CHASSE   CLOUDY    89  72  56 E8        30.00F HX  96
BOGALUSA*      FAIR      91  69  48 SE5       30.03F HX  96
GALLIANO*      NOT AVBL
NEW ROADS*     FAIR      87  74  64 E6        30.02R HX  95
GONZALES*      PTSUNNY   87  74  65 SE5       30.00S HX  95
HAMMOND*       PTSUNNY   90  70  51 CALM      30.03F HX  95
HOUMA*         MOSUNNY   88  72  58 NE6       30.01S
PORT FOURCHON* SUNNY     88  73  62 E12       30.01F HX  96

$$

LAZ041-044-053-054-281800-
SOUTHWEST LOUISIANA

CITY           SKY/WX    TMP DP  RH WIND       PRES   REMARKS
LAKE CHARLES   CLOUDY    82  74  76 S15       29.99S
LAFAYETTE      MOSUNNY   89  73  59 VRB6      30.00S HX  97
PATTERSON      CLOUDY    86  75  70 SE8       30.03S HX  95
SALT POINT       N/A     87  79  76 VRB5      29.99S HX 101
NEW IBERIA     PTSUNNY   87  75  67 SE8       30.01S HX  96
CHENAULT AIRPK PTSUNNY   81  75  83 SE13G20   30.00R

$$

LAZ027-028-281800-
CENTRAL LOUISIANA

CITY           SKY/WX    TMP DP  RH WIND       PRES   REMARKS
FORT POLK      PTSUNNY   89  72  56 SE8       29.99F HX  96
ALEXANDRIA INT CLOUDY    89  72  56 MISG      29.99S HX  96
ALEXANDRIA     PTSUNNY   91  74  57 SE8       30.00F HX 100

$$

LAZ001-002-281800-
NORTHWEST LOUISIANA

CITY           SKY/WX    TMP DP  RH WIND       PRES   REMARKS
SHREVEPORT     MOSUNNY   92  70  48 VRB6      29.98F HX  97
BARKSDALE AFB  MOSUNNY   92  71  49 SE9       29.99F HX  98
DTN SHREVEPORT MOSUNNY   90  70  51 SE5       29.99F HX  95

$$

LAZ014-016-281800-
NORTHEAST LOUISIANA

CITY           SKY/WX    TMP DP  RH WIND       PRES   REMARKS
MONROE         MOSUNNY   88  73  61 SW3       30.01F HX  95
TALLULAH       PTSUNNY   91  71  51 E7        30.01S HX  97

$$




USA.gov is the U.S. government's official web portal to all federal, state and local government web resources and services.